Weather reports worldwide

Advertisment
Plymouth, United Kingdom (3827): temperature & dewpoint: 11.10.2018 07:00:00 - 17.10.2018 07:00:00 (BST)Plymouth, United Kingdom (3827): wind speed & gusts: 11.10.2018 07:00:00 - 17.10.2018 07:00:00 (BST)Plymouth, United Kingdom (3827): wind direction: 11.10.2018 07:00:00 - 17.10.2018 07:00:00 (BST)Plymouth, United Kingdom (3827): reduced air pressure: 11.10.2018 07:00:00 - 17.10.2018 07:00:00 (BST)Plymouth, United Kingdom (3827): visibility: 11.10.2018 07:00:00 - 17.10.2018 07:00:00 (BST)Plymouth, United Kingdom (3827): precipitation: 11.10.2018 07:00:00 - 17.10.2018 07:00:00 (BST)
Date & Time tt [°C] td [°C] ff [km/h] ff [kn] fx [km/h] fx [kn] dd ppp [hPa] vv [km] rr [mm]
17.10.2018 07:00:00 11,9 11,6 8 4 - - NNE 1017,3 16 0,0
17.10.2018 06:00:00 11,8 11,5 9 5 - - NE 1017,1 13 0,2
17.10.2018 05:00:00 12,1 11,9 9 5 - - N 1016,8 2,5 0,6
17.10.2018 04:00:00 12,9 12,7 13 7 - - W 1016,8 5 0,4
17.10.2018 03:00:00 13,5 13,3 26 14 - - SW 1016,9 1,8 1,4
17.10.2018 02:00:00 13,4 13,1 26 14 - - SSW 1017,1 1,3 0,8
17.10.2018 01:00:00 13,4 13,1 24 13 - - SSW 1017,4 2,3 0,6
17.10.2018 00:00:00 13,6 12,8 22 12 - - SSW 1017,4 2,5 0,0
16.10.2018 23:00:00 13,8 12,5 21 11 - - SSW 1017,4 17 0,0
16.10.2018 22:00:00 13,7 12,3 18 10 - - SSW 1017,5 13 0,0
16.10.2018 21:00:00 13,4 11,7 22 12 - - SSW 1017,2 15 0,0
16.10.2018 20:00:00 12,8 11,1 21 11 - - SW 1017,3 23 0,0
16.10.2018 19:00:00 13,1 11,4 22 12 - - SSW 1017,1 26 0,0
16.10.2018 18:00:00 13,2 11,3 18 10 - - SSW 1016,8 28 0,0
16.10.2018 17:00:00 13,6 11,4 21 11 - - SSW 1016,8 35 0,0
16.10.2018 16:00:00 12,9 11,7 21 11 - - SW 1016,7 24 0,0
16.10.2018 15:00:00 14,2 12,1 18 10 - - WSW 1016,5 25 0,2
16.10.2018 14:00:00 13,5 12,0 16 9 - - WSW 1016,4 13 0,0
16.10.2018 13:00:00 13,9 11,7 18 10 - - SW 1016,3 19 0,0
16.10.2018 12:00:00 14,3 12,0 15 8 - - SW 1016,0 29 0,0
16.10.2018 11:00:00 13,7 11,5 15 8 - - WSW 1016,1 35 0,0
16.10.2018 10:00:00 13,5 12,4 13 7 - - WSW 1016,0 12 0,0
16.10.2018 09:00:00 13,4 12,7 8 4 - - SSW 1015,3 11 0,0
16.10.2018 08:00:00 13,2 12,7 13 7 - - SW 1014,8 9 0,0
16.10.2018 07:00:00 13,6 13,3 5 3 - - SSW 1014,1 3,9 0,0
16.10.2018 06:00:00 13,7 13,3 15 8 - - SSW 1013,8 0,5 0,0
16.10.2018 05:00:00 14,2 13,7 13 7 - - SE 1013,3 5 0,0
16.10.2018 04:00:00 13,9 13,3 11 6 - - ESE 1013,4 5 0,0
16.10.2018 03:00:00 13,8 13,0 11 6 - - E 1013,6 5 0,0
16.10.2018 02:00:00 13,7 12,8 9 5 - - E 1013,5 8 0,0
16.10.2018 01:00:00 13,7 12,8 11 6 - - E 1013,4 7 0,0
16.10.2018 00:00:00 13,6 12,7 11 6 - - E 1013,5 8 0,0
15.10.2018 23:00:00 13,1 12,4 11 6 - - E 1013,6 6 0,0
15.10.2018 22:00:00 12,7 12,0 9 5 - - E 1013,3 6 0,0
15.10.2018 21:00:00 12,4 11,7 13 7 - - NE 1012,6 8 0,0
15.10.2018 20:00:00 12,2 11,5 11 6 - - ENE 1012,4 11 0,0
15.10.2018 19:00:00 12,0 11,3 8 4 - - ENE 1012,4 24 0,0
15.10.2018 18:00:00 12,0 11,2 5 3 - - NNE 1012,2 3,2 0,4
15.10.2018 17:00:00 12,5 10,7 13 7 - - NNE 1011,9 3,4 0,0
15.10.2018 16:00:00 13,5 10,9 9 5 - - NE 1011,0 26 0,0
15.10.2018 15:00:00 14,0 10,7 9 5 - - ENE 1010,7 30 0,0
15.10.2018 14:00:00 14,7 10,6 9 5 - - NE 1010,3 35 0,0
15.10.2018 13:00:00 14,8 10,7 22 12 - - NE 1010,2 20 0,0
15.10.2018 12:00:00 13,7 10,2 13 7 - - NNE 1010,1 30 0,0
15.10.2018 11:00:00 12,2 9,2 21 11 - - NNE 1009,9 50 0,0
15.10.2018 10:00:00 12,0 9,2 16 9 - - N 1009,5 35 0,0
15.10.2018 09:00:00 11,5 8,9 13 7 - - NNE 1009,2 35 0,0
15.10.2018 08:00:00 10,9 8,4 15 8 - - NNE 1008,5 45 0,0
15.10.2018 07:00:00 10,9 8,2 15 8 - - N 1008,3 35 0,0
15.10.2018 06:00:00 10,9 8,2 15 8 - - N 1008,1 45 0,0
15.10.2018 05:00:00 11,0 8,1 15 8 - - N 1008,1 30 0,0
15.10.2018 04:00:00 10,8 7,9 15 8 - - N 1008,0 35 0,0
15.10.2018 03:00:00 10,7 7,5 18 10 - - N 1008,1 40 0,0
15.10.2018 02:00:00 10,6 7,2 21 11 - - N 1008,3 40 0,0
15.10.2018 01:00:00 10,5 7,1 16 9 - - N 1008,4 40 0,0
15.10.2018 00:00:00 10,5 7,0 13 7 - - N 1008,8 40 0,0
14.10.2018 23:00:00 10,6 7,2 9 5 - - NNE 1008,8 50 0,0
14.10.2018 22:00:00 10,7 7,0 21 11 - - N 1008,7 35 0,0
14.10.2018 21:00:00 10,4 7,1 15 8 - - NNE 1008,6 30 0,0
14.10.2018 20:00:00 11,0 7,4 18 10 - - NNE 1008,9 40 0,0
14.10.2018 19:00:00 11,3 7,7 15 8 - - NNE 1008,8 45 0,0
14.10.2018 18:00:00 12,2 8,1 21 11 - - NNE 1008,4 50 0,0
14.10.2018 17:00:00 12,7 7,7 22 12 - - NNE 1008,2 25 0,0
14.10.2018 16:00:00 14,2 8,5 18 10 - - NNE 1007,7 28 0,0
14.10.2018 15:00:00 13,4 8,2 18 10 - - NNE 1007,3 25 0,0
14.10.2018 14:00:00 12,8 8,5 18 10 - - NNE 1007,2 21 0,0
14.10.2018 13:00:00 12,7 8,8 21 11 - - NE 1007,3 35 0,0
14.10.2018 12:00:00 11,6 10,4 9 5 - - NNE 1008,0 29 0,4
14.10.2018 11:00:00 10,8 10,0 16 9 - - NNE 1007,7 8 1,2
14.10.2018 10:00:00 10,8 10,1 16 9 - - N 1007,5 14 0,4
14.10.2018 09:00:00 10,7 10,2 16 9 - - N 1007,1 17 1,4
14.10.2018 08:00:00 10,7 10,1 11 6 - - NNW 1006,9 12 0,8
14.10.2018 07:00:00 10,8 10,2 15 8 - - N 1005,9 14 1,2
14.10.2018 06:00:00 11,0 10,3 16 9 - - N 1005,7 15 1,0
14.10.2018 05:00:00 11,4 10,7 15 8 - - N 1006,2 4,1 1,2
14.10.2018 04:00:00 11,7 11,2 9 5 - - NNE 1006,2 12 2,4
14.10.2018 03:00:00 12,0 11,3 8 4 - - N 1006,9 4,3 2,8
14.10.2018 02:00:00 12,3 11,3 11 6 - - NW 1007,1 12 0,4
14.10.2018 01:00:00 13,0 11,5 13 7 - - NW 1006,9 14 0,0
14.10.2018 00:00:00 13,7 13,0 22 12 - - SW 1006,8 9 0,0
13.10.2018 23:00:00 14,1 13,3 29 16 - - SSW 1006,6 8 0,2
13.10.2018 22:00:00 14,2 13,3 34 18 46 25 SSW 1006,5 7 0,2
13.10.2018 21:00:00 14,8 13,9 35 19 50 27 SSW 1006,1 4,4 0,0
13.10.2018 20:00:00 15,3 14,1 39 21 54 29 SSW 1005,7 5 0,0
13.10.2018 19:00:00 15,6 14,5 44 24 67 36 SSW 1005,1 4,9 0,0
13.10.2018 18:00:00 16,2 14,7 52 28 70 38 SSW 1004,7 5 0,0
13.10.2018 17:00:00 16,8 15,0 63 34 85 46 S 1003,8 6 0,0
13.10.2018 16:00:00 17,6 14,9 63 34 91 49 S 1003,4 7 0,0
13.10.2018 15:00:00 18,3 15,1 61 33 85 46 S 1003,2 9 0,0
13.10.2018 14:00:00 18,0 14,7 63 34 81 44 S 1003,3 9 0,0
13.10.2018 13:00:00 18,4 14,8 50 27 70 38 S 1004,0 10 0,0
13.10.2018 12:00:00 17,9 14,8 41 22 63 34 S 1004,8 10 0,0
13.10.2018 11:00:00 17,6 14,7 48 26 85 46 S 1005,5 9 0,0
13.10.2018 10:00:00 18,0 15,3 59 32 87 47 S 1005,3 9 0,4
13.10.2018 09:00:00 17,3 15,2 52 28 87 47 S 1005,3 8 0,0
13.10.2018 08:00:00 17,1 15,7 63 34 83 45 S 1005,0 7 0,0
13.10.2018 07:00:00 16,9 16,1 59 32 80 43 S 1004,9 6 0,0
13.10.2018 06:00:00 16,5 16,2 55 30 81 44 S 1005,2 3,5 2,2
13.10.2018 05:00:00 16,4 16,1 48 26 80 43 S 1005,5 3,0 0,2
13.10.2018 04:00:00 16,2 15,8 52 28 80 43 S 1005,9 3,3 1,0
13.10.2018 03:00:00 16,4 15,9 52 28 72 39 S 1006,4 6 0,0
13.10.2018 02:00:00 16,5 16,0 52 28 74 40 S 1006,6 5 0,2
13.10.2018 01:00:00 16,3 15,9 54 29 76 41 S 1007,0 3,9 0,2
13.10.2018 00:00:00 16,4 16,1 57 31 83 45 S 1007,2 2,3 0,0
12.10.2018 23:00:00 16,4 16,0 61 33 89 48 S 1007,3 3,9 0,0
12.10.2018 22:00:00 16,5 15,8 59 32 89 48 S 1007,1 4,8 0,0
12.10.2018 21:00:00 16,5 15,8 52 28 81 44 S 1007,1 4,0 0,0
12.10.2018 20:00:00 16,6 15,7 57 31 87 47 S 1006,7 5 0,2
12.10.2018 19:00:00 16,0 15,4 63 34 91 49 S 1006,3 2,4 0,2
12.10.2018 18:00:00 16,2 15,1 67 36 94 51 S 1005,9 3,2 0,0
12.10.2018 17:00:00 16,4 14,8 65 35 94 51 S 1005,5 6 0,0
12.10.2018 16:00:00 16,9 14,5 59 32 100 54 S 1005,5 7 0,0
12.10.2018 15:00:00 17,2 14,4 63 34 100 54 S 1004,4 6 0,0
12.10.2018 14:00:00 17,1 14,4 67 36 94 51 S 1004,3 6 0,0
12.10.2018 13:00:00 16,9 14,2 65 35 89 48 S 1004,3 7 0,0
12.10.2018 12:00:00 16,3 14,2 50 27 83 45 S 1004,1 6 0,0
12.10.2018 11:00:00 15,3 14,4 59 32 87 47 S 1003,2 4,6 2,2
12.10.2018 10:00:00 14,8 14,2 61 33 91 49 S 1003,5 1,5 4,6
12.10.2018 09:00:00 15,1 14,5 61 33 91 49 S 1003,0 1,8 3,6
12.10.2018 08:00:00 14,7 14,4 55 30 81 44 S 1002,8 1,6 1,0
12.10.2018 07:00:00 14,7 14,2 52 28 87 47 S 1002,9 3,0 2,0
12.10.2018 06:00:00 14,5 13,9 59 32 80 43 S 1002,4 3,1 1,8
12.10.2018 05:00:00 14,4 13,6 52 28 81 44 S 1002,5 3,0 2,4
12.10.2018 04:00:00 14,2 13,0 42 23 65 35 S 1002,9 4,2 1,4
12.10.2018 03:00:00 14,0 12,6 39 21 63 34 S 1003,7 4,3 1,2
12.10.2018 02:00:00 14,6 12,2 35 19 63 34 S 1004,4 8 0,0
12.10.2018 01:00:00 14,3 11,8 31 17 52 28 S 1004,3 16 0,0
12.10.2018 00:00:00 13,7 11,6 34 18 52 28 S 1004,9 13 0,0
11.10.2018 23:00:00 13,2 11,5 29 16 46 25 S 1005,0 10 0,0
11.10.2018 22:00:00 13,1 11,9 34 18 - - S 1004,8 10 0,0
11.10.2018 21:00:00 13,4 12,0 31 17 - - S 1004,4 13 0,0
11.10.2018 20:00:00 13,5 12,4 29 16 - - S 1004,2 11 0,0
11.10.2018 19:00:00 13,7 12,2 22 12 - - S 1003,7 12 0,0
11.10.2018 18:00:00 14,6 13,0 15 8 - - S 1002,7 10 0,0
11.10.2018 17:00:00 14,5 12,2 18 10 - - SSW 1002,6 19 0,0
11.10.2018 16:00:00 14,9 12,2 21 11 - - SW 1001,9 18 0,0
11.10.2018 15:00:00 15,5 12,1 22 12 50 27 W 1000,2 21 0,0
11.10.2018 14:00:00 15,4 12,9 44 24 59 32 S 998,8 8 0,0
11.10.2018 13:00:00 15,6 14,5 29 16 59 32 SSE 998,0 7 0,0
11.10.2018 12:00:00 14,9 14,3 26 14 48 26 SE 997,9 5 0,6
11.10.2018 11:00:00 14,3 13,3 22 12 - - ESE 998,1 2,6 1,4
11.10.2018 10:00:00 14,5 13,0 21 11 - - SE 999,0 8 0,4
11.10.2018 09:00:00 14,5 13,6 16 9 46 25 SE 999,2 7 0,4
11.10.2018 08:00:00 15,1 13,7 24 13 - - SSE 999,3 9 0,0
11.10.2018 07:00:00 14,8 13,8 24 13 - - SSE 998,6 7 0,0

tt = temperature
td = dewpoint
ff = wind speed
fx = gusts
dd = wind direction
ppp = reduced air pressure
vv = visibility
rr = precipitation

Next stations